星链-35699(STARLINK-35699)

导读 | 豆包AI

STARLINK-35699是美国SpaceX公司星链(Starlink)星座的成员卫星,于2025年11月21日发射入轨。星链项目旨在通过低轨卫星网络实现全球高速互联网覆盖,为偏远欠发达地区提供网络接入服务。该卫星采用量产化设计,搭载霍尔推进器和自主避撞系统,服役末期会主动离轨再入大气层烧毁,服务寿命约5-7年,属于星链星座持续扩展的一部分。

基本信息
目录编号:
66557
目录名称:
STARLINK-35699
国际标识:
2025-268A
轨道中心:
EARTH
卫星名称:
星链-35699
卫星全名:
星链-35699(STARLINK-35699)
卫星状态:
在轨 (已飞行159 天)
发射日期:
2025-11-21 UTC
国别 :
美国 (US)
星等 :
--
轨道信息
数据来源 国际轨道数据
星历时间: 2026-04-28T21:43:10+0800
14小时前
查看轨道信息
半长轴: 6861.152km
偏心率: 0.0000956
轨道倾角: 43.005°
近地点辐角 255.718°
升交点赤经 65.783°
平近点角 104.357°
近地点: 482.359km
远地点: 483.671km
周期: 94.266分钟
每日圈数: 15.275914
详细信息
固有亮度:
5
最大亮度:
2.5
卫星平台:
Starlink V1.0
覆盖范围:
全球
运营商:
太空探索技术公司
运营商所在国:
美国
制造商(研发单位):
太空探索技术公司
制造商所在国:
美国
使用方式:
暂无
卫星简介
Starlink 计划是 SpaceX 推出的全球卫星互联网项目,通过发射低轨道卫星,为全球尤其是偏远地区提供高速、低延迟的互联网服务。自 2019 年起,Starlink 已部署数千颗卫星,旨在缩小全球数字鸿沟,推动互联网普及。该项目还为军事、航空等行业提供通信支持,带来广泛经济效益。
2D轨道图
3D轨道图
轨道高度分析图
轨道倾角分析图
轨道综合分析图
查看轨道综合分析图